Content
SEND FEEDBACK

Daily
Averages
Monthly
Summary
United States of America

GREENFIELD, MASSACHUSETTS


Home > North America > United States > Massachusetts
Elevation: 190 feet     Latitude: 42 37N     Longitude: 072 33W

WEATHER
 
SELECT A DAY
Number of Records: 212,494;   Date Range: 7/1/96 - 8/12/14
 
SHARE

PRINT THIS DATA

[ ← Previous Day ]
WEATHER ALMANAC - DECEMBER 6, 2013
[ Next Day → ]
[ °C ]   °F
Weather ElementAverageHighLow
Temperature43.8 °F52 °F (12:28 am)32 °F (10:31 pm)
Dewpoint41.4 °F52 °F (1:52 am)30.9 °F (10:41 pm)
Humidity91.9 %100 % (1:47 am)70 % (4:52 pm)
Barometer29.99 in30.16 in (8:52 pm)29.85 in (2:32 am)
Wind Speed6 mph12.7 mph (5:02 am)
Weather ElementAverage
Visibility5.7 mi
Wind DirectionSW (225.1 °)

Weather ElementTotal
Precipitation0.75 in
Heating Degree Days23 (Base 65)
Averaged from 55 records on December 6, 2013
WEATHER CONDITIONS BREAKOUT
WIND DIRECTION BREAKOUT
WEATHER BY HOUR - DECEMBER 6, 2013
[ °C ]   °F
Local TimeTemperatureDewpointHumidityBarometerVisibilityWind DirectionWind SpeedGust SpeedPrecipitationEventsConditions
12:28 AM52.0 °F51.1 °F97 %29.90 in5.0 miSouth (180°)8.1 mphOvercast
12:52 AM52.0 °F51.1 °F97 %29.91 in4.0 miSSE (160°)6.9 mphOvercast
1:16 AM52.0 °F51.1 °F97 %29.88 in4.0 miSouth (180°)5.8 mphOvercast
1:30 AM52.0 °F51.1 °F97 %29.89 in2.5 miSouth (190°)8.1 mphOvercast
1:39 AM52.0 °F51.1 °F97 %29.89 in2.0 miSouth (180°)9.2 mphOvercast
1:47 AM51.8 °F51.8 °F100 %29.90 in1.8 miSouth (180°)9.2 mphOvercast
1:52 AM52.0 °F52.0 °F100 %29.91 in1.8 miSouth (180°)8.1 mphOvercast
2:20 AM52.0 °F51.1 °F97 %29.86 in1.0 miSSE (160°)6.9 mphOvercast
2:32 AM52.0 °F52.0 °F100 %29.85 in1.2 miSouth (170°)6.9 mphOvercast
2:45 AM52.0 °F51.1 °F97 %29.87 in1.0 miSSW (200°)8.1 mphOvercast
2:52 AM52.0 °F51.1 °F97 %29.88 in0.8 miSouth (190°)9.2 mphOvercast
3:52 AM52.0 °F52.0 °F100 %29.86 in0.5 miSSE (150°)8.1 mphFogFog
4:52 AM50.0 °F48.9 °F96 %29.89 in0.5 miNW (320°)5.8 mph0.01 inFog-RainLight Rain
5:02 AM50.0 °F50.0 °F100 %29.89 in1.2 miWNW (290°)12.7 mph0.00 inRainLight Rain
5:04 AM50.0 °F50.0 °F100 %29.89 in2.0 miWNW (290°)10.4 mph0.00 inRainLight Rain
5:11 AM50.0 °F48.9 °F96 %29.90 in5.0 miWNW (290°)11.5 mph0.00 inRainLight Rain
5:18 AM50.0 °F48.9 °F96 %29.90 in7.0 miWNW (300°)9.2 mph0.00 inRainLight Rain
5:27 AM48.9 °F48.0 °F97 %29.90 in10.0 miNW (310°)8.1 mph0.00 inRainLight Rain
5:52 AM48.0 °F46.0 °F93 %29.93 in10.0 miNW (320°)8.1 mph0.01 inOvercast
6:15 AM46.9 °F45.0 °F93 %29.92 in10.0 miNNW (330°)8.1 mphOvercast
6:52 AM46.9 °F45.0 °F93 %29.94 in10.0 miCalmOvercast
7:41 AM46.9 °F44.1 °F90 %29.97 in10.0 miWNW (290°)6.9 mph0.01 inRainLight Rain
7:52 AM46.0 °F44.1 °F93 %29.97 in9.0 miVariable3.5 mph0.01 inRainLight Rain
8:24 AM45.0 °F43.0 °F93 %29.98 in10.0 miWNW (290°)8.1 mph0.00 inRainLight Rain
8:35 AM45.0 °F42.1 °F90 %29.99 in10.0 miWest (280°)9.2 mph0.00 inOvercast
8:42 AM45.0 °F42.1 °F90 %29.99 in10.0 miWest (270°)6.9 mph0.00 inOvercast
8:52 AM45.0 °F42.1 °F90 %30.00 in10.0 miWNW (290°)6.9 mph0.00 inOvercast
9:52 AM44.1 °F41.0 °F89 %30.00 in10.0 miWNW (300°)8.1 mphOvercast
10:04 AM45.0 °F41.0 °F86 %29.99 in10.0 miWNW (300°)6.9 mphOvercast
10:52 AM45.0 °F39.9 °F82 %29.99 in10.0 miNW (320°)5.8 mphOvercast
11:24 AM45.0 °F39.9 °F82 %29.99 in10.0 miNW (310°)4.6 mphOvercast
11:52 AM44.1 °F39.9 °F85 %30.01 in10.0 miNW (310°)8.1 mph0.00 inOvercast
12:50 PM44.6 °F39.2 °F81 %29.99 in10.0 miWest (280°)5.8 mph0.00 inRainLight Rain
12:52 PM44.1 °F37.9 °F79 %29.99 in10.0 miWest (270°)4.6 mph0.00 inRainLight Rain
1:07 PM43.0 °F37.0 °F80 %30.00 in10.0 miWest (280°)9.2 mph0.00 inOvercast
1:52 PM43.0 °F36.0 °F76 %30.00 in10.0 miWNW (290°)6.9 mph0.00 inOvercast
2:52 PM43.0 °F35.1 °F74 %30.00 in10.0 miWNW (300°)5.8 mphOvercast
3:52 PM42.1 °F34.0 °F73 %30.04 in10.0 miWNW (290°)3.5 mphOvercast
4:52 PM42.1 °F33.1 °F70 %30.05 in10.0 miWNW (300°)3.5 mphOvercast
5:52 PM39.9 °F33.1 °F77 %30.06 in10.0 miNW (310°)4.6 mph0.00 inRainLight Rain
6:52 PM37.9 °F35.1 °F89 %30.09 in9.0 miNW (310°)5.8 mph0.04 inRainLight Rain
7:52 PM37.0 °F35.1 °F93 %30.10 in6.0 miWest (280°)4.6 mph0.04 inRainLight Rain
8:52 PM37.0 °F35.1 °F93 %30.16 in6.0 miWest (270°)6.9 mph0.06 inRainLight Rain
9:27 PM34.0 °F32.0 °F92 %30.13 in2.5 miNW (310°)4.6 mph0.06 inSnowLight Snow
9:39 PM33.1 °F32.0 °F96 %30.12 in2.0 miNNW (340°)3.5 mph0.08 inSnowLight Snow
9:49 PM33.8 °F32.0 °F93 %30.10 in3.0 miNNE (20°)3.5 mph0.09 inSnowLight Snow
9:52 PM33.1 °F32.0 °F96 %30.12 in3.0 miCalm0.09 inSnowLight Snow
10:00 PM33.1 °F32.0 °F96 %30.08 in2.5 miENE (70°)3.5 mph0.01 inSnowLight Snow
10:21 PM33.1 °F32.0 °F96 %30.09 in3.0 miCalm0.02 inSnowLight Snow
10:31 PM32.0 °F32.0 °F100 %30.11 in2.5 miWest (280°)3.5 mph0.02 inSnowLight Snow
10:41 PM32.0 °F30.9 °F96 %30.13 in1.8 miWNW (290°)4.6 mph0.03 inSnowLight Snow
10:52 PM33.1 °F32.0 °F96 %30.14 in1.0 miCalm0.05 inSnowLight Snow
11:09 PM32.0 °F32.0 °F100 %30.12 in1.0 miCalm0.02 inSnowLight Snow
11:19 PM32.0 °F32.0 °F100 %30.11 in0.8 miCalm0.03 inSnowLight Snow
11:52 PM32.0 °F30.9 °F96 %30.13 in0.5 miNorth (360°)3.5 mph0.07 inFog-SnowSnow
Hourly data recorded from KORE, located miles away from Greenfield, Massachusetts







STORIES FROM OUR PARTNERS